This is the latest recevied weather packets stored in our database for station/object SV7GBF-2. If no packets are shown the sender has not sent any weather packets the latest 10 day(s).
| Time | Temp. | Humidity | Pressure | Rain* | Wind** | Luminosity | Snow |
|---|---|---|---|---|---|---|---|
| 1788351247 | 31.11° C | 23% | 1016 hPa | - | - | - | - |
| 1788350647 | 31.11° C | 24% | 1016 hPa | - | - | - | - |
| 1788349447 | 31.11° C | 26% | 1016 hPa | - | - | - | - |
| 1788347647 | 30.56° C | 31% | 1017 hPa | - | - | - | - |
| 1788347047 | 30.56° C | 31% | 1017 hPa | - | - | - | - |
| 1788346447 | 30.56° C | 33% | 1017 hPa | - | - | - | - |
| 1788345847 | 30° C | 35% | 1017 hPa | - | - | - | - |
| 1788345246 | 30° C | 34% | 1017 hPa | - | - | - | - |
| 1788344644 | 29.44° C | 35% | 1017 hPa | - | - | - | - |
| 1788344045 | 30° C | 35% | 1017 hPa | - | - | - | - |
| 1788343444 | 29.44° C | 38% | 1017 hPa | - | - | - | - |
| 1788342244 | 29.44° C | 38% | 1017 hPa | - | - | - | - |
| 1788341644 | 28.89° C | 40% | 1017 hPa | - | - | - | - |
| 1788341042 | 28.33° C | 38% | 1017 hPa | - | - | - | - |
| 1788340444 | 28.33° C | 45% | 1017 hPa | - | - | - | - |
| 1788339842 | 27.78° C | 49% | 1018 hPa | - | - | - | - |
| 1788339242 | 27.78° C | 45% | 1018 hPa | - | - | - | - |
| 1788338649 | 27.78° C | 36% | 1018 hPa | - | - | - | - |
| 1788338044 | 27.78° C | 45% | 1017 hPa | - | - | - | - |
| 1788337447 | 27.22° C | 58% | 1017 hPa | - | - | - | - |
| 1788336246 | 26.67° C | 60% | 1017 hPa | - | - | - | - |
| 1788335646 | 26.67° C | 61% | 1017 hPa | - | - | - | - |
| 1788335044 | 26.67° C | 61% | 1017 hPa | - | - | - | - |
| 1788334446 | 26.67° C | 62% | 1018 hPa | - | - | - | - |
| 1788333843 | 26.11° C | 61% | 1018 hPa | - | - | - | - |
* Rain since midnight (hover to see other rain measurements)
** Current wind speed in m/s (hover to see current wind gust speed)